Time,TemperatureF,DewpointF,PressureIn,WindDirection,WindDirectionDegrees,WindSpeedMPH,WindSpeedGustMPH,Humidity,HourlyPrecipIn,Conditions,Clouds,dailyrainin,SoftwareType,DateUTC
2013-01-14 00:02:00,26.0,17.0,29.88,SSE,147,0.0,0.0,68,0.00,,,0.00,,2013-01-14 06:02:00,
2013-01-14 00:12:00,26.0,17.0,29.88,SSE,147,0.0,0.0,68,0.00,,,0.00,,2013-01-14 06:12:00,
2013-01-14 00:22:00,26.0,17.0,29.89,ESE,107,0.0,0.0,67,0.00,,,0.00,,2013-01-14 06:22:00,
2013-01-14 00:32:00,26.0,17.0,29.89,ESE,107,0.0,0.0,67,0.00,,,0.00,,2013-01-14 06:32:00,
2013-01-14 00:43:00,26.0,17.0,29.89,ESE,107,0.0,0.0,67,0.00,,,0.00,,2013-01-14 06:43:00,
2013-01-14 00:53:00,27.0,17.0,29.91,ESE,117,0.0,5.0,65,0.00,,,0.00,,2013-01-14 06:53:00,
2013-01-14 01:02:00,27.0,17.0,29.91,ESE,117,0.0,5.0,65,0.00,,,0.00,,2013-01-14 07:02:00,
2013-01-14 01:12:00,27.0,17.0,29.91,ESE,117,0.0,5.0,65,0.00,,,0.00,,2013-01-14 07:12:00,
2013-01-14 01:22:00,27.0,18.0,29.92,SSE,154,0.0,0.0,68,0.00,,,0.00,,2013-01-14 07:22:00,
2013-01-14 01:32:00,27.0,18.0,29.92,SSE,154,0.0,0.0,68,0.00,,,0.00,,2013-01-14 07:32:00,
2013-01-14 01:43:00,27.0,18.0,29.92,SSE,154,0.0,0.0,68,0.00,,,0.00,,2013-01-14 07:43:00,
2013-01-14 01:53:00,25.0,17.0,29.94,North,360,2.0,5.0,72,0.00,,,0.00,,2013-01-14 07:53:00,
2013-01-14 02:02:00,25.0,17.0,29.94,North,360,2.0,5.0,72,0.00,,,0.00,,2013-01-14 08:02:00,
2013-01-14 02:12:00,25.0,17.0,29.94,North,360,2.0,5.0,72,0.00,,,0.00,,2013-01-14 08:12:00,
2013-01-14 02:22:00,25.0,18.0,29.95,NNE,28,0.0,0.0,75,0.00,,,0.00,,2013-01-14 08:22:00,
2013-01-14 02:32:00,25.0,18.0,29.95,NNE,28,0.0,0.0,75,0.00,,,0.00,,2013-01-14 08:32:00,
2013-01-14 02:43:00,25.0,18.0,29.95,NNE,28,0.0,0.0,75,0.00,,,0.00,,2013-01-14 08:43:00,
2013-01-14 02:53:00,25.0,19.0,29.93,SE,145,0.0,0.0,77,0.00,,,0.00,,2013-01-14 08:53:00,
2013-01-14 03:02:00,25.0,19.0,29.93,SE,145,0.0,0.0,77,0.00,,,0.00,,2013-01-14 09:02:00,
2013-01-14 03:12:00,25.0,19.0,29.93,SE,145,0.0,0.0,77,0.00,,,0.00,,2013-01-14 09:12:00,
2013-01-14 03:22:00,24.0,19.0,29.96,SE,145,0.0,0.0,80,0.00,,,0.00,,2013-01-14 09:22:00,
2013-01-14 03:33:00,24.0,19.0,29.96,SE,145,0.0,0.0,80,0.00,,,0.00,,2013-01-14 09:33:00,
2013-01-14 03:43:00,24.0,19.0,29.96,SE,145,0.0,0.0,80,0.00,,,0.00,,2013-01-14 09:43:00,
2013-01-14 03:53:00,23.0,19.0,29.96,North,360,2.0,8.0,84,0.00,,,0.00,,2013-01-14 09:53:00,
2013-01-14 04:02:00,23.0,19.0,29.96,North,360,2.0,8.0,84,0.00,,,0.00,,2013-01-14 10:02:00,
2013-01-14 04:12:00,23.0,19.0,29.96,North,360,2.0,8.0,84,0.00,,,0.00,,2013-01-14 10:12:00,
2013-01-14 04:22:00,22.0,18.0,29.96,NNE,32,0.0,6.0,86,0.00,,,0.00,,2013-01-14 10:22:00,
2013-01-14 04:32:00,22.0,18.0,29.96,NNE,32,0.0,6.0,86,0.00,,,0.00,,2013-01-14 10:32:00,
2013-01-14 04:43:00,22.0,18.0,29.96,NNE,32,0.0,6.0,86,0.00,,,0.00,,2013-01-14 10:43:00,
2013-01-14 04:53:00,23.0,20.0,29.93,NE,51,0.0,5.0,88,0.00,,,0.00,,2013-01-14 10:53:00,
2013-01-14 05:02:00,23.0,20.0,29.93,NE,51,0.0,5.0,88,0.00,,,0.00,,2013-01-14 11:02:00,
2013-01-14 05:12:00,23.0,20.0,29.93,NE,51,0.0,5.0,88,0.00,,,0.00,,2013-01-14 11:12:00,
2013-01-14 05:22:00,23.0,20.0,29.92,ENE,58,0.0,2.0,87,0.00,,,0.00,,2013-01-14 11:22:00,
2013-01-14 05:32:00,23.0,20.0,29.92,ENE,58,0.0,2.0,87,0.00,,,0.00,,2013-01-14 11:32:00,
2013-01-14 05:43:00,23.0,20.0,29.92,ENE,58,0.0,2.0,87,0.00,,,0.00,,2013-01-14 11:43:00,
2013-01-14 05:53:00,23.0,20.0,29.95,East,99,0.0,0.0,88,0.00,,,0.00,,2013-01-14 11:53:00,
2013-01-14 06:03:00,23.0,20.0,29.95,East,99,0.0,0.0,88,0.00,,,0.00,,2013-01-14 12:03:00,
2013-01-14 06:12:00,23.0,20.0,29.95,East,99,0.0,0.0,88,0.00,,,0.00,,2013-01-14 12:12:00,
2013-01-14 06:23:00,22.0,19.0,29.92,ESE,102,0.0,0.0,89,0.00,,,0.00,,2013-01-14 12:23:00,
2013-01-14 06:33:00,22.0,19.0,29.92,ESE,102,0.0,0.0,89,0.00,,,0.00,,2013-01-14 12:33:00,
2013-01-14 06:43:00,22.0,19.0,29.92,ESE,102,0.0,0.0,89,0.00,,,0.00,,2013-01-14 12:43:00,
2013-01-14 06:53:00,22.0,20.0,29.93,ESE,107,0.0,2.0,90,0.00,,,0.00,,2013-01-14 12:53:00,
2013-01-14 07:03:00,22.0,20.0,29.93,ESE,107,0.0,2.0,90,0.00,,,0.00,,2013-01-14 13:03:00,
2013-01-14 07:12:00,22.0,20.0,29.93,ESE,107,0.0,2.0,90,0.00,,,0.00,,2013-01-14 13:12:00,
2013-01-14 07:22:00,21.0,19.0,29.95,ESE,104,0.0,0.0,91,0.00,,,0.00,,2013-01-14 13:22:00,
2013-01-14 07:33:00,21.0,19.0,29.95,ESE,104,0.0,0.0,91,0.00,,,0.00,,2013-01-14 13:33:00,
2013-01-14 07:43:00,21.0,19.0,29.95,ESE,104,0.0,0.0,91,0.00,,,0.00,,2013-01-14 13:43:00,
2013-01-14 07:53:00,21.0,19.0,29.96,ESE,102,0.0,0.0,91,0.00,,,0.00,,2013-01-14 13:53:00,
2013-01-14 08:02:00,21.0,19.0,29.96,ESE,102,0.0,0.0,91,0.00,,,0.00,,2013-01-14 14:02:00,
2013-01-14 08:13:00,21.0,19.0,29.96,ESE,102,0.0,0.0,91,0.00,,,0.00,,2013-01-14 14:13:00,
2013-01-14 08:22:00,21.0,19.0,29.97,ESE,102,0.0,0.0,92,0.00,,,0.00,,2013-01-14 14:22:00,
2013-01-14 08:33:00,21.0,19.0,29.97,ESE,102,0.0,0.0,92,0.00,,,0.00,,2013-01-14 14:33:00,
2013-01-14 08:43:00,21.0,19.0,29.97,ESE,102,0.0,0.0,92,0.00,,,0.00,,2013-01-14 14:43:00,
2013-01-14 08:53:00,21.0,19.0,29.96,ESE,104,0.0,0.0,92,0.00,,,0.00,,2013-01-14 14:53:00,
2013-01-14 09:03:00,21.0,19.0,29.96,ESE,104,0.0,0.0,92,0.00,,,0.00,,2013-01-14 15:03:00,
2013-01-14 09:12:00,21.0,19.0,29.96,ESE,104,0.0,0.0,92,0.00,,,0.00,,2013-01-14 15:12:00,
2013-01-14 09:23:00,21.0,19.0,29.96,East,100,0.0,0.0,92,0.00,,,0.00,,2013-01-14 15:23:00,
2013-01-14 09:33:00,21.0,19.0,29.96,East,100,0.0,0.0,92,0.00,,,0.00,,2013-01-14 15:33:00,
2013-01-14 09:43:00,21.0,19.0,29.96,East,100,0.0,0.0,92,0.00,,,0.00,,2013-01-14 15:43:00,
2013-01-14 09:53:00,22.0,20.0,29.96,ESE,103,1.0,2.0,92,0.00,,,0.00,,2013-01-14 15:53:00,
2013-01-14 10:03:00,22.0,20.0,29.96,ESE,103,1.0,2.0,92,0.00,,,0.00,,2013-01-14 16:03:00,
2013-01-14 10:12:00,22.0,20.0,29.96,ESE,103,1.0,2.0,92,0.00,,,0.00,,2013-01-14 16:12:00,
2013-01-14 10:23:00,22.0,20.0,29.97,SE,126,0.0,4.0,91,0.00,,,0.00,,2013-01-14 16:23:00,
2013-01-14 10:33:00,22.0,20.0,29.97,SE,126,0.0,4.0,91,0.00,,,0.00,,2013-01-14 16:33:00,
2013-01-14 10:43:00,22.0,20.0,29.97,SE,126,0.0,4.0,91,0.00,,,0.00,,2013-01-14 16:43:00,
2013-01-14 10:53:00,23.0,21.0,29.99,East,86,1.0,6.0,90,0.00,,,0.00,,2013-01-14 16:53:00,
2013-01-14 11:03:00,23.0,21.0,29.99,East,86,1.0,6.0,90,0.00,,,0.00,,2013-01-14 17:03:00,
2013-01-14 11:12:00,23.0,21.0,29.99,East,86,1.0,6.0,90,0.00,,,0.00,,2013-01-14 17:12:00,
2013-01-14 11:23:00,23.0,20.0,29.98,ESE,110,3.0,6.0,89,0.00,,,0.00,,2013-01-14 17:23:00,
2013-01-14 11:33:00,23.0,20.0,29.98,ESE,110,3.0,6.0,89,0.00,,,0.00,,2013-01-14 17:33:00,
2013-01-14 11:43:00,23.0,20.0,29.98,ESE,110,3.0,6.0,89,0.00,,,0.00,,2013-01-14 17:43:00,
2013-01-14 11:53:00,24.0,21.0,29.96,East,96,0.0,5.0,89,0.00,,,0.00,,2013-01-14 17:53:00,
2013-01-14 12:03:00,24.0,21.0,29.96,East,96,0.0,5.0,89,0.00,,,0.00,,2013-01-14 18:03:00,
2013-01-14 12:13:00,24.0,21.0,29.95,East,92,2.0,7.0,88,0.00,,,0.00,,2013-01-14 18:13:00,
2013-01-14 12:23:00,24.0,21.0,29.95,East,92,2.0,7.0,88,0.00,,,0.00,,2013-01-14 18:23:00,
2013-01-14 12:33:00,24.0,21.0,29.95,East,92,2.0,7.0,88,0.00,,,0.00,,2013-01-14 18:33:00,
2013-01-14 12:43:00,24.0,21.0,29.95,East,92,2.0,7.0,88,0.00,,,0.00,,2013-01-14 18:43:00,
2013-01-14 12:53:00,27.0,23.0,29.93,SE,127,2.0,6.0,84,0.00,,,0.00,,2013-01-14 18:53:00,
2013-01-14 13:03:00,27.0,23.0,29.93,SE,127,2.0,6.0,84,0.00,,,0.00,,2013-01-14 19:03:00,
2013-01-14 13:12:00,27.0,23.0,29.93,SE,127,2.0,6.0,84,0.00,,,0.00,,2013-01-14 19:12:00,
2013-01-14 13:22:00,29.0,23.0,29.90,ESE,117,3.0,8.0,79,0.00,,,0.00,,2013-01-14 19:22:00,
2013-01-14 13:33:00,29.0,23.0,29.90,ESE,117,3.0,8.0,79,0.00,,,0.00,,2013-01-14 19:33:00,
2013-01-14 13:43:00,29.0,23.0,29.90,ESE,117,3.0,8.0,79,0.00,,,0.00,,2013-01-14 19:43:00,
2013-01-14 13:53:00,29.0,23.0,29.89,East,88,4.0,8.0,77,0.00,,,0.00,,2013-01-14 19:53:00,
2013-01-14 14:03:00,29.0,23.0,29.89,East,88,4.0,8.0,77,0.00,,,0.00,,2013-01-14 20:03:00,
2013-01-14 14:13:00,29.0,23.0,29.89,East,88,4.0,8.0,77,0.00,,,0.00,,2013-01-14 20:13:00,
2013-01-14 14:22:00,30.0,23.0,29.87,ESE,103,5.0,8.0,74,0.00,,,0.00,,2013-01-14 20:22:00,
2013-01-14 14:33:00,30.0,23.0,29.87,ESE,103,5.0,8.0,74,0.00,,,0.00,,2013-01-14 20:33:00,
2013-01-14 14:43:00,30.0,23.0,29.87,ESE,103,5.0,8.0,74,0.00,,,0.00,,2013-01-14 20:43:00,
2013-01-14 14:53:00,31.0,23.0,29.88,East,83,5.0,11.0,73,0.00,,,0.00,,2013-01-14 20:53:00,
2013-01-14 15:02:00,31.0,23.0,29.88,East,83,5.0,11.0,73,0.00,,,0.00,,2013-01-14 21:02:00,
2013-01-14 15:12:00,31.0,23.0,29.88,East,83,5.0,11.0,73,0.00,,,0.00,,2013-01-14 21:12:00,
2013-01-14 15:23:00,31.0,24.0,29.88,ESE,112,5.0,8.0,74,0.00,,,0.00,,2013-01-14 21:23:00,
2013-01-14 15:33:00,31.0,24.0,29.88,ESE,112,5.0,8.0,74,0.00,,,0.00,,2013-01-14 21:33:00,
2013-01-14 15:43:00,31.0,24.0,29.88,ESE,112,5.0,8.0,74,0.00,,,0.00,,2013-01-14 21:43:00,
2013-01-14 15:53:00,30.0,23.0,29.87,East,96,4.0,8.0,75,0.00,,,0.00,,2013-01-14 21:53:00,
2013-01-14 16:02:00,30.0,23.0,29.87,East,96,4.0,8.0,75,0.00,,,0.00,,2013-01-14 22:02:00,
2013-01-14 16:12:00,30.0,23.0,29.87,East,96,4.0,8.0,75,0.00,,,0.00,,2013-01-14 22:12:00,
2013-01-14 16:23:00,29.0,23.0,29.89,East,97,5.0,10.0,77,0.00,,,0.00,,2013-01-14 22:23:00,
2013-01-14 16:32:00,29.0,23.0,29.89,East,97,5.0,10.0,77,0.00,,,0.00,,2013-01-14 22:32:00,
2013-01-14 16:43:00,29.0,23.0,29.89,East,97,5.0,10.0,77,0.00,,,0.00,,2013-01-14 22:43:00,
2013-01-14 16:53:00,28.0,22.0,29.89,ESE,106,2.0,6.0,79,0.00,,,0.00,,2013-01-14 22:53:00,
2013-01-14 17:03:00,28.0,22.0,29.89,ESE,106,2.0,6.0,79,0.00,,,0.00,,2013-01-14 23:03:00,
2013-01-14 17:12:00,28.0,22.0,29.89,ESE,106,2.0,6.0,79,0.00,,,0.00,,2013-01-14 23:12:00,
2013-01-14 17:23:00,27.0,22.0,29.90,East,86,1.0,6.0,81,0.00,,,0.00,,2013-01-14 23:23:00,
2013-01-14 17:33:00,27.0,22.0,29.90,East,86,1.0,6.0,81,0.00,,,0.00,,2013-01-14 23:33:00,
2013-01-14 17:43:00,27.0,22.0,29.90,East,86,1.0,6.0,81,0.00,,,0.00,,2013-01-14 23:43:00,
2013-01-14 17:53:00,28.0,23.0,29.91,East,95,1.0,5.0,80,0.00,,,0.00,,2013-01-14 23:53:00,
2013-01-14 18:02:00,28.0,23.0,29.91,East,95,1.0,5.0,80,0.00,,,0.00,,2013-01-15 00:02:00,
2013-01-14 18:12:00,28.0,23.0,29.91,East,95,1.0,5.0,80,0.00,,,0.00,,2013-01-15 00:12:00,
2013-01-14 18:22:00,28.0,22.0,29.91,ENE,69,0.0,0.0,78,0.00,,,0.00,,2013-01-15 00:22:00,
2013-01-14 18:32:00,28.0,22.0,29.91,ENE,69,0.0,0.0,78,0.00,,,0.00,,2013-01-15 00:32:00,
2013-01-14 18:43:00,28.0,22.0,29.91,ENE,69,0.0,0.0,78,0.00,,,0.00,,2013-01-15 00:43:00,
2013-01-14 18:53:00,27.0,21.0,29.90,ENE,75,0.0,5.0,78,0.00,,,0.00,,2013-01-15 00:53:00,
2013-01-14 19:02:00,27.0,21.0,29.90,ENE,75,0.0,5.0,78,0.00,,,0.00,,2013-01-15 01:02:00,
2013-01-14 19:12:00,26.0,20.0,29.92,ESE,102,0.0,0.0,79,0.00,,,0.00,,2013-01-15 01:12:00,
2013-01-14 19:22:00,26.0,20.0,29.92,ESE,102,0.0,0.0,79,0.00,,,0.00,,2013-01-15 01:22:00,
2013-01-14 19:32:00,26.0,20.0,29.92,ESE,102,0.0,0.0,79,0.00,,,0.00,,2013-01-15 01:32:00,
2013-01-14 19:43:00,26.0,20.0,29.92,ESE,102,0.0,0.0,79,0.00,,,0.00,,2013-01-15 01:43:00,
2013-01-14 19:52:00,24.0,19.0,29.94,ESE,103,2.0,5.0,82,0.00,,,0.00,,2013-01-15 01:52:00,
2013-01-14 20:02:00,24.0,19.0,29.94,ESE,103,2.0,5.0,82,0.00,,,0.00,,2013-01-15 02:02:00,
2013-01-14 20:12:00,24.0,19.0,29.94,ESE,103,2.0,5.0,82,0.00,,,0.00,,2013-01-15 02:12:00,
2013-01-14 20:22:00,24.0,20.0,29.93,NE,55,0.0,3.0,84,0.00,,,0.00,,2013-01-15 02:22:00,
2013-01-14 20:32:00,24.0,20.0,29.93,NE,55,0.0,3.0,84,0.00,,,0.00,,2013-01-15 02:32:00,
2013-01-14 20:43:00,24.0,20.0,29.93,NE,55,0.0,3.0,84,0.00,,,0.00,,2013-01-15 02:43:00,
2013-01-14 20:53:00,23.0,19.0,29.94,ESE,113,0.0,0.0,84,0.00,,,0.00,,2013-01-15 02:53:00,
2013-01-14 21:02:00,23.0,19.0,29.94,ESE,113,0.0,0.0,84,0.00,,,0.00,,2013-01-15 03:02:00,
2013-01-14 21:12:00,23.0,19.0,29.94,ESE,113,0.0,0.0,84,0.00,,,0.00,,2013-01-15 03:12:00,
2013-01-14 21:22:00,23.0,19.0,29.94,ESE,106,0.0,0.0,84,0.00,,,0.00,,2013-01-15 03:22:00,
2013-01-14 21:33:00,23.0,19.0,29.94,ESE,106,0.0,0.0,84,0.00,,,0.00,,2013-01-15 03:33:00,
2013-01-14 21:42:00,23.0,19.0,29.94,ESE,106,0.0,0.0,84,0.00,,,0.00,,2013-01-15 03:42:00,
2013-01-14 21:53:00,22.0,18.0,29.93,SW,216,0.0,0.0,86,0.00,,,0.00,,2013-01-15 03:53:00,
2013-01-14 22:02:00,22.0,18.0,29.93,SW,216,0.0,0.0,86,0.00,,,0.00,,2013-01-15 04:02:00,
2013-01-14 22:12:00,22.0,18.0,29.93,SW,216,0.0,0.0,86,0.00,,,0.00,,2013-01-15 04:12:00,
2013-01-14 22:22:00,22.0,19.0,29.93,SE,143,0.0,0.0,87,0.00,,,0.00,,2013-01-15 04:22:00,
2013-01-14 22:32:00,22.0,19.0,29.93,SE,143,0.0,0.0,87,0.00,,,0.00,,2013-01-15 04:32:00,
2013-01-14 22:42:00,22.0,19.0,29.93,SE,143,0.0,0.0,87,0.00,,,0.00,,2013-01-15 04:42:00,
2013-01-14 22:52:00,21.0,18.0,29.94,ESE,121,0.0,0.0,88,0.00,,,0.00,,2013-01-15 04:52:00,
2013-01-14 23:03:00,21.0,18.0,29.94,ESE,121,0.0,0.0,88,0.00,,,0.00,,2013-01-15 05:03:00,
2013-01-14 23:12:00,21.0,18.0,29.93,ESE,110,0.0,0.0,87,0.00,,,0.00,,2013-01-15 05:12:00,
2013-01-14 23:22:00,21.0,18.0,29.93,ESE,110,0.0,0.0,87,0.00,,,0.00,,2013-01-15 05:22:00,
2013-01-14 23:33:00,21.0,18.0,29.93,ESE,110,0.0,0.0,87,0.00,,,0.00,,2013-01-15 05:33:00,
2013-01-14 23:42:00,21.0,18.0,29.93,ESE,110,0.0,0.0,87,0.00,,,0.00,,2013-01-15 05:42:00,
2013-01-14 23:52:00,21.0,18.0,29.93,East,100,0.0,0.0,87,0.00,,,0.00,,2013-01-15 05:52:00,